NWS Melbourne » East Central Florida Hourly Weather Roundup

 

ASUS42 KMLB 031012
RWRMLB
HOURLY WEATHER ROUNDUP AROUND FLORIDA
NATIONAL WEATHER SERVICE OFFICE MELBOURNE FL
600 AM EDT THU SEP 03 2015
  
CITY           SKY/WX    TMP DP  RH WIND       PRES   REMARKS
MELBOURNE      CLEAR     78  76  93 S6        29.96R                  
FORT PIERCE    CLEAR     76  75  97 CALM      29.97R FOG              
ORLANDO INTL   MOCLDY    77  74  90 CALM      29.97R                  
DAYTONA BEACH  PTCLDY    75  74  96 CALM      29.97R                  
VERO BEACH     CLEAR     79  75  87 S3        29.97R                  
$$
...ELSEWHERE ACROSS CENTRAL FLORIDA...
  
CITY           SKY/WX    TMP DP  RH WIND       PRES   REMARKS
PATRICK AFB    CLEAR     80  78  91 SW6       29.96R                  
CAPE CANAVERAL PTCLDY    80  76  87 W6        29.95R                  
ORLANDO EXEC   CLEAR     79  77  94 NW3       29.97R                  
LEESBURG       CLEAR     77  75  93 W3        29.98R                  
THE VILLAGES     N/A     77  75  94 CALM      29.88S                  
SANFORD        CLEAR     77  74  90 W3        29.97R                  
DELAND           N/A     75  73  94 CALM      29.98S                  
WINTER HAVEN   PTCLDY    78  76  93 W5        29.98S                  
OKEECHOBEE       N/A     73  73 100 CALM      29.97S                  
TAMPA          PTCLDY    81  76  84 CALM      29.98R                  
$$
...NORTHERN FLORIDA...
  
CITY           SKY/WX    TMP DP  RH WIND       PRES   REMARKS
PALM COAST     SUNNY     73  73 100 S5        29.96R FOG              
ST AUGUSTINE   CLEAR     76  75  97 SW6       29.95S                  
OCALA          PTCLDY    73  72  94 S3        29.97S                  
GAINESVILLE    CLEAR     75  73  93 CALM      29.96S                  
JACKSONVILLE   FOG       74  74 100 W3        29.94R VSB 1/2          
TALLAHASSEE    PTCLDY    77  73  87 CALM      29.96R                  
$$
...ALONG THE SOUTHEAST COAST TO THE KEYS...
  
CITY           SKY/WX    TMP DP  RH WIND       PRES   REMARKS
STUART           N/A     77  73  88 CALM      29.98R                  
WEST PALM BCH  PTCLDY    78  76  93 W3        29.98R                  
MIAMI          PTCLDY    81  78  91 CALM      29.97R                  
KEY WEST       CLEAR     84  76  76 SE5       29.97S                  
$$
...MARINE REPORTS...
  
STATION/POSITION TIME  TEMP    WIND        PRES    WAVE   SWELL
                       AIR SEA DIR/SP/G            HT/PER HT/PER/DIR
                 (UTC) (F)     (DEG/KT/KT) (MB)    (FT/S) (FT/S/D)
ST AUGUSTINE FP  1000   75 82  230/  5/  7 1014.8S
20NM E CAPE CANA 0920   83 85  220/ 12/ 14 1014.5
120 E NEW SMYRNA 0950   84 86  190/  8/ 10 1014.7R   2/ 9   2/110/ 9
TRIDENT PIER     0948   81 87  210/  6/  7 1015.1R
SEBASTIAN INLET  1000   80     210/  5     1015.0
4NM E PORT CANAV 0940      85                N/A     1/10
6NM NE FPR INLET 0951      83                N/A     1/10
SETTLEMENT PT GB 1000   83     180/  3/  5 1015.5R
$$
 

 

Link to: East Central Florida Hourly Weather Roundup


USA.gov is the U.S. government's official web portal to all federal, state and local government web resources and services.